This demonstration page uses our WeatherBlox Daily Observations layout. Learn more.

Left ArrowRight Arrow

Hourly Observations for August 26, 2018

Temp ( °F °C ) Dew Point ( °F °C ) Humidity (%) Winds ( mph kmh ) Pressure ( in mb ) Visibility ( mi km ) Precip ( " mm )
12:52 am 00:52 Clear 77 25 71 21.7 82 82 SSE 10 17 30.03 1017 9 14 0.00 0.00
1:52 am 01:52 Clear 76 24.4 71 21.7 85 85 S 9 15 30.04 1017 8 13 0.00 0.00
2:52 am 02:52 Clear 75 23.9 71 21.7 88 88 S 9 15 30.04 1017 8 13 0.00 0.00
3:52 am 03:52 Clear 75 23.9 71 21.7 88 88 S 10 17 30.03 1017 7 11 0.00 0.00
4:52 am 04:52 Clear 74 23.3 70 21.1 88 88 SSE 10 17 30.02 1017 7 11 0.00 0.00
5:52 am 05:52 Clear 74 23.3 70 21.1 88 88 S 9 15 30.03 1017 7 11 0.00 0.00
6:52 am 06:52 Sunny with Mist and Fog 74 23.3 70 21.1 88 88 SSE 10 17 30.05 1018 5 8 0.00 0.00
7:52 am 07:52 Hazy 75 23.9 70 21.1 84 84 S 12 19 30.06 1018 6 10 0.00 0.00
8:52 am 08:52 Sunny 79 26.1 71 21.7 77 77 S 14 22 30.06 1018 7 11 0.00 0.00
9:52 am 09:52 Sunny 82 27.8 71 21.7 69 69 S 14 22 30.06 1018 8 13 0.00 0.00
10:52 am 10:52 Sunny 85 29.4 72 22.2 65 65 SSW 13 20 30.06 1018 8 13 0.00 0.00
11:52 am 11:52 Sunny 87 30.6 71 21.7 59 59 SSW 13 20 30.04 1017 9 14 0.00 0.00
12:52 pm 12:52 Sunny 88 31.1 71 21.7 57 57 SW 15 24 30.03 1017 9 14 0.00 0.00
1:52 pm 13:52 Mostly Sunny 89 31.7 71 21.7 55 55 SSW 13 20 30.03 1017 9 14 0.00 0.00
2:52 pm 14:52 Partly Cloudy 89 31.7 72 22.2 57 57 SSE 15 24 30.01 1016 9 14 0.00 0.00
3:52 pm 15:52 Partly Cloudy 89 31.7 71 21.7 55 55 S 14 22 29.99 1016 8 13 0.00 0.00
4:52 pm 16:52 Sunny 89 31.7 71 21.7 55 55 S 15 24 29.98 1015 9 14 0.00 0.00
5:52 pm 17:52 Sunny 88 31.1 71 21.7 57 57 S 12 19 29.96 1015 8 13 0.00 0.00
6:52 pm 18:52 Sunny 86 30 71 21.7 61 61 S 16 26 29.96 1014 8 13 0.00 0.00
7:52 pm 19:52 Clear 83 28.3 70 21.1 65 65 S 13 20 29.96 1014 8 13 0.00 0.00
8:52 pm 20:52 Clear 81 27.2 69 20.6 67 67 S 10 17 29.96 1015 9 14 0.00 0.00
9:52 pm 21:52 Clear 80 26.7 69 20.6 69 69 S 12 19 29.96 1015 9 14 0.00 0.00
10:52 pm 22:52 Clear 79 26.1 69 20.6 72 72 SSE 14 22 29.96 1015 8 13 0.00 0.00
11:52 pm 23:52 Clear 78 25.6 69 20.6 74 74 S 13 20 29.96 1015 8 13 0.00 0.00

Powered by AerisWeather